Date String (YYYY-MM-DD hh:mm:ss) UTC,Instrument flags,Ambient pressure (hPa),Sample flow (lpm),Bypass flow (lpm),Sample temperature (°C),Ambient temperature (°C),ASC tube jacket temperature (°C),LED temperature (°C),Box temperature (°C),Sample RH (%),Span deviation,Mass concentration (μg/m³),Mass concentration (μg/m³),Mass concentration (μg/m³)
DateTimeUTC,F1_M11,P_M11,Q1_M11,Q2_M11,T1_M11,T2_M11,T3_M11,T4_M11,T5_M11,U1_M11,ZSPAN_M11,X0_M11,X2_M11,X1_M11
2023-05-22 03:00:00,,0832.5,5.01,0.00,29.6,28.1,00.0,37.9,31.3,18.1,0003.5,0021.58,0014.58,0013.65
2023-05-22 03:01:00,,0832.5,5.01,0.00,29.6,28.2,00.0,37.9,31.3,18.1,0003.5,0021.53,0014.62,0013.66
2023-05-22 03:02:00,,0832.5,4.99,0.00,29.6,28.3,00.0,37.9,31.3,18.1,0003.4,0021.82,0014.62,0013.65
2023-05-22 03:03:00,,0832.5,5.00,0.00,29.7,28.3,00.0,37.9,31.4,18.0,0003.7,0022.03,0014.64,0013.65
2023-05-22 03:04:00,,0832.5,5.01,0.00,29.7,28.3,00.0,37.9,31.4,18.0,0003.8,0021.75,0014.68,0013.67
2023-05-22 03:05:00,,0832.5,5.00,0.00,29.7,28.4,00.0,37.9,31.4,17.9,0003.7,0021.65,0014.73,0013.69
2023-05-22 03:06:00,,0832.5,4.98,0.00,29.7,28.4,00.0,38.0,31.4,17.9,0003.6,0021.72,0014.75,0013.69
2023-05-22 03:07:00,,0832.6,5.00,0.00,29.8,28.5,00.0,38.0,31.4,17.9,0003.6,0021.75,0014.76,0013.70
2023-05-22 03:08:00,,0832.5,5.01,0.00,29.8,28.2,00.0,38.0,31.4,18.1,0003.6,0021.70,0014.77,0013.72
2023-05-22 03:09:00,,0832.5,4.99,0.00,29.8,26.5,00.0,37.9,31.2,18.0,0003.5,0021.71,0014.78,0013.73
2023-05-22 03:10:00,,0832.5,5.01,0.00,29.7,25.4,00.0,37.8,31.0,17.9,0003.5,0021.37,0014.77,0013.73
2023-05-22 03:11:00,,0832.5,5.01,0.00,29.6,25.4,00.0,37.8,30.8,17.9,0003.3,0020.94,0014.75,0013.74
2023-05-22 03:12:00,,0832.5,5.00,0.00,29.5,25.7,00.0,37.8,30.8,18.0,0003.1,0020.62,0014.75,0013.76
2023-05-22 03:13:00,,0832.5,4.99,0.00,29.4,26.0,00.0,37.8,30.9,18.1,0003.2,0020.72,0014.77,0013.80
2023-05-22 03:14:00,,0832.5,5.00,0.00,29.4,26.4,00.0,37.8,30.9,18.4,0003.2,0021.05,0014.77,0013.81
2023-05-22 03:15:00,,0832.5,5.00,0.00,29.4,26.7,00.0,37.8,31.0,18.5,0003.2,0021.51,0014.83,0013.83
2023-05-22 03:16:00,,0832.6,5.00,0.00,29.4,26.9,00.0,37.8,31.0,18.6,0003.2,0022.22,0014.88,0013.85
2023-05-22 03:17:00,,0832.7,5.00,0.00,29.4,27.2,00.0,37.8,31.0,18.6,0003.1,0022.42,0014.87,0013.86
2023-05-22 03:18:00,,0832.6,5.00,0.00,29.4,27.4,00.0,37.8,31.0,18.4,0002.9,0023.02,0014.85,0013.85
2023-05-22 03:19:00,,0832.7,5.01,0.00,29.4,27.5,00.0,37.8,31.1,18.2,0002.8,0024.05,0014.89,0013.85
2023-05-22 03:20:00,,0832.6,5.01,0.00,29.4,27.6,00.0,37.8,31.1,18.2,0002.9,0024.65,0014.92,0013.84
2023-05-22 03:21:00,,0832.6,5.01,0.00,29.5,27.7,00.0,37.8,31.1,18.1,0002.8,0024.38,0014.91,0013.82
2023-05-22 03:22:00,,0832.7,4.99,0.00,29.5,27.8,00.0,37.8,31.1,18.2,0002.9,0024.58,0014.95,0013.81
2023-05-22 03:23:00,,0832.7,4.99,0.00,29.5,27.9,00.0,37.8,31.2,18.6,0003.1,0024.95,0014.98,0013.79
2023-05-22 03:24:00,,0832.7,5.01,0.00,29.5,28.0,00.0,37.8,31.2,18.6,0003.1,0024.68,0014.97,0013.76
2023-05-22 03:25:00,,0832.7,5.00,0.00,29.5,28.1,00.0,37.8,31.2,18.4,0003.2,0024.16,0014.99,0013.77
2023-05-22 03:26:00,,0832.7,4.99,0.00,29.6,28.1,00.0,37.8,31.2,18.2,0003.4,0023.92,0015.00,0013.78
2023-05-22 03:27:00,,0832.7,4.99,0.00,29.6,28.2,00.0,37.9,31.3,18.0,0003.5,0023.20,0015.01,0013.80
2023-05-22 03:28:00,,0832.7,5.00,0.00,29.6,28.2,00.0,37.9,31.3,18.3,0003.6,0023.54,0015.07,0013.81
2023-05-22 03:29:00,,0832.7,5.01,0.00,29.6,28.3,00.0,37.9,31.3,18.3,0003.6,0023.15,0015.09,0013.84
2023-05-22 03:30:00,,0832.7,5.01,0.00,29.7,28.3,00.0,37.9,31.3,18.0,0003.7,0022.96,0015.07,0013.85
2023-05-22 03:31:00,,0832.8,4.99,0.00,29.7,28.3,00.0,37.9,31.3,18.0,0003.8,0022.02,0015.01,0013.85
2023-05-22 03:32:00,,0832.7,5.00,0.00,29.7,28.3,00.0,37.9,31.4,18.0,0003.8,0022.14,0015.06,0013.88
2023-05-22 03:33:00,,0832.7,5.00,0.00,29.7,28.4,00.0,38.0,31.4,17.8,0003.6,0021.95,0015.02,0013.88
2023-05-22 03:34:00,,0832.9,4.99,0.00,29.7,28.4,00.0,38.0,31.4,17.9,0003.7,0021.69,0014.98,0013.88
2023-05-22 03:35:00,,0832.9,5.01,0.00,29.7,28.4,00.0,38.0,31.4,17.9,0003.7,0021.55,0014.91,0013.87
2023-05-22 03:36:00,,0832.8,5.00,0.00,29.8,28.4,00.0,38.0,31.4,18.0,0003.7,0021.57,0014.87,0013.82
2023-05-22 03:37:00,,0832.8,5.00,0.00,29.8,28.4,00.0,38.0,31.4,18.1,0003.5,0021.54,0014.80,0013.77
2023-05-22 03:38:00,,0832.8,4.99,0.00,29.8,28.4,00.0,38.1,31.5,18.0,0003.3,0021.44,0014.72,0013.70
2023-05-22 03:39:00,,0832.7,5.00,0.00,29.8,28.5,00.0,38.1,31.5,17.9,0003.2,0021.06,0014.61,0013.65
2023-05-22 03:40:00,,0832.7,4.99,0.00,29.8,28.5,00.0,38.1,31.5,17.9,0003.2,0020.64,0014.61,0013.63
2023-05-22 03:41:00,,0832.9,5.00,0.00,29.9,28.3,00.0,38.1,31.5,18.4,0003.2,0020.41,0014.61,0013.62
2023-05-22 03:42:00,,0832.7,4.99,0.00,29.8,26.6,00.0,38.0,31.3,18.4,0003.2,0020.94,0014.63,0013.62
2023-05-22 03:43:00,,0832.7,5.01,0.00,29.8,25.3,00.0,37.9,31.1,18.3,0003.3,0021.01,0014.57,0013.59
2023-05-22 03:44:00,,0832.7,5.01,0.00,29.6,25.3,00.0,37.9,30.9,18.1,0003.4,0021.15,0014.58,0013.58
2023-05-22 03:45:00,,0832.7,5.01,0.00,29.5,25.5,00.0,37.9,30.9,18.0,0003.3,0020.80,0014.56,0013.58
2023-05-22 03:46:00,,0832.7,5.00,0.00,29.5,25.9,00.0,37.9,30.9,18.2,0003.2,0020.90,0014.57,0013.59
2023-05-22 03:47:00,,0832.8,5.00,0.00,29.5,26.2,00.0,37.9,30.9,18.2,0003.1,0021.26,0014.57,0013.61
2023-05-22 03:48:00,,0832.7,4.99,0.00,29.4,26.5,00.0,37.9,30.9,18.3,0003.0,0021.55,0014.60,0013.66
2023-05-22 03:49:00,,0832.7,4.99,0.00,29.4,26.8,00.0,37.8,30.9,18.3,0003.1,0021.67,0014.65,0013.71
2023-05-22 03:50:00,,0832.7,4.99,0.00,29.4,27.0,00.0,37.8,31.0,18.4,0003.3,0021.69,0014.71,0013.77
2023-05-22 03:51:00,,0832.7,5.00,0.00,29.4,27.2,00.0,37.8,31.0,18.2,0003.2,0021.59,0014.70,0013.79
2023-05-22 03:52:00,,0832.7,5.00,0.00,29.4,27.3,00.0,37.8,31.0,18.6,0003.1,0021.43,0014.72,0013.79
2023-05-22 03:53:00,,0832.8,5.00,0.00,29.4,27.5,00.0,37.8,31.0,18.7,0003.2,0021.02,0014.75,0013.82
2023-05-22 03:54:00,,0832.7,5.01,0.00,29.4,27.6,00.0,37.8,31.0,18.6,0003.3,0020.63,0014.77,0013.85
2023-05-22 03:55:00,,0832.7,5.00,0.00,29.4,27.7,00.0,37.8,31.1,18.5,0003.5,0020.65,0014.81,0013.88
2023-05-22 03:56:00,,0832.8,4.99,0.00,29.5,27.8,00.0,37.8,31.1,19.2,0003.6,0020.68,0014.84,0013.90
2023-05-22 03:57:00,,0832.8,5.01,0.00,29.5,27.8,00.0,37.8,31.1,18.9,0003.8,0020.73,0014.87,0013.91
2023-05-22 03:58:00,,0832.7,5.01,0.00,29.5,27.9,00.0,37.8,31.1,18.6,0003.9,0020.17,0014.89,0013.93
2023-05-22 03:59:00,,0832.8,4.99,0.00,29.5,27.9,00.0,37.8,31.1,18.4,0004.0,0019.70,0014.93,0013.97
